Index of /20260430/WXO-DD/model_gdps/15km/12/003
Name Last modified Size Description
Parent Directory -
20260430T12Z_MSC_GDPS_AbsoluteVorticity_IsbL-0200_LatLon0.15_PT003H.grib2 2026-04-30 15:50 1.5M
20260430T12Z_MSC_GDPS_AbsoluteVorticity_IsbL-0250_LatLon0.15_PT003H.grib2 2026-04-30 15:50 1.3M
20260430T12Z_MSC_GDPS_AbsoluteVorticity_IsbL-0500_LatLon0.15_PT003H.grib2 2026-04-30 15:50 1.5M
20260430T12Z_MSC_GDPS_AbsoluteVorticity_IsbL-0700_LatLon0.15_PT003H.grib2 2026-04-30 15:50 1.6M
20260430T12Z_MSC_GDPS_AbsoluteVorticity_IsbL-0850_LatLon0.15_PT003H.grib2 2026-04-30 15:50 1.6M
20260430T12Z_MSC_GDPS_AirTemp_AGL-120m_LatLon0.15_PT003H.grib2 2026-04-30 15:50 791K
20260430T12Z_MSC_GDPS_AirTemp_AGL-2m_LatLon0.15_PT003H.grib2 2026-04-30 15:50 1.0M
20260430T12Z_MSC_GDPS_AirTemp_AGL-40m_LatLon0.15_PT003H.grib2 2026-04-30 15:50 809K
20260430T12Z_MSC_GDPS_AirTemp_AGL-80m_LatLon0.15_PT003H.grib2 2026-04-30 15:50 799K
20260430T12Z_MSC_GDPS_AirTemp_IsbL-0001_LatLon0.15_PT003H.grib2 2026-04-30 15:50 653K
20260430T12Z_MSC_GDPS_AirTemp_IsbL-0005_LatLon0.15_PT003H.grib2 2026-04-30 15:50 690K
20260430T12Z_MSC_GDPS_AirTemp_IsbL-0010_LatLon0.15_PT003H.grib2 2026-04-30 15:50 764K
20260430T12Z_MSC_GDPS_AirTemp_IsbL-0020_LatLon0.15_PT003H.grib2 2026-04-30 15:50 788K
20260430T12Z_MSC_GDPS_AirTemp_IsbL-0030_LatLon0.15_PT003H.grib2 2026-04-30 15:50 753K
20260430T12Z_MSC_GDPS_AirTemp_IsbL-0050_LatLon0.15_PT003H.grib2 2026-04-30 15:50 807K
20260430T12Z_MSC_GDPS_AirTemp_IsbL-0100_LatLon0.15_PT003H.grib2 2026-04-30 15:50 1.0M
20260430T12Z_MSC_GDPS_AirTemp_IsbL-0150_LatLon0.15_PT003H.grib2 2026-04-30 15:50 1.0M
20260430T12Z_MSC_GDPS_AirTemp_IsbL-0175_LatLon0.15_PT003H.grib2 2026-04-30 15:50 961K
20260430T12Z_MSC_GDPS_AirTemp_IsbL-0200_LatLon0.15_PT003H.grib2 2026-04-30 15:50 973K
20260430T12Z_MSC_GDPS_AirTemp_IsbL-0225_LatLon0.15_PT003H.grib2 2026-04-30 15:50 1.0M
20260430T12Z_MSC_GDPS_AirTemp_IsbL-0250_LatLon0.15_PT003H.grib2 2026-04-30 15:50 1.0M
20260430T12Z_MSC_GDPS_AirTemp_IsbL-0275_LatLon0.15_PT003H.grib2 2026-04-30 15:50 1.0M
20260430T12Z_MSC_GDPS_AirTemp_IsbL-0300_LatLon0.15_PT003H.grib2 2026-04-30 15:50 1.0M
20260430T12Z_MSC_GDPS_AirTemp_IsbL-0350_LatLon0.15_PT003H.grib2 2026-04-30 15:50 936K
20260430T12Z_MSC_GDPS_AirTemp_IsbL-0400_LatLon0.15_PT003H.grib2 2026-04-30 15:50 946K
20260430T12Z_MSC_GDPS_AirTemp_IsbL-0450_LatLon0.15_PT003H.grib2 2026-04-30 15:50 966K
20260430T12Z_MSC_GDPS_AirTemp_IsbL-0500_LatLon0.15_PT003H.grib2 2026-04-30 15:50 771K
20260430T12Z_MSC_GDPS_AirTemp_IsbL-0550_LatLon0.15_PT003H.grib2 2026-04-30 15:50 808K
20260430T12Z_MSC_GDPS_AirTemp_IsbL-0600_LatLon0.15_PT003H.grib2 2026-04-30 15:50 905K
20260430T12Z_MSC_GDPS_AirTemp_IsbL-0650_LatLon0.15_PT003H.grib2 2026-04-30 15:50 931K
20260430T12Z_MSC_GDPS_AirTemp_IsbL-0700_LatLon0.15_PT003H.grib2 2026-04-30 15:50 959K
20260430T12Z_MSC_GDPS_AirTemp_IsbL-0750_LatLon0.15_PT003H.grib2 2026-04-30 15:50 1.0M
20260430T12Z_MSC_GDPS_AirTemp_IsbL-0800_LatLon0.15_PT003H.grib2 2026-04-30 15:50 1.1M
20260430T12Z_MSC_GDPS_AirTemp_IsbL-0850_LatLon0.15_PT003H.grib2 2026-04-30 15:50 1.1M
20260430T12Z_MSC_GDPS_AirTemp_IsbL-0875_LatLon0.15_PT003H.grib2 2026-04-30 15:50 1.1M
20260430T12Z_MSC_GDPS_AirTemp_IsbL-0900_LatLon0.15_PT003H.grib2 2026-04-30 15:50 1.1M
20260430T12Z_MSC_GDPS_AirTemp_IsbL-0925_LatLon0.15_PT003H.grib2 2026-04-30 15:50 1.1M
20260430T12Z_MSC_GDPS_AirTemp_IsbL-0950_LatLon0.15_PT003H.grib2 2026-04-30 15:50 1.1M
20260430T12Z_MSC_GDPS_AirTemp_IsbL-0970_LatLon0.15_PT003H.grib2 2026-04-30 15:50 1.2M
20260430T12Z_MSC_GDPS_AirTemp_IsbL-0985_LatLon0.15_PT003H.grib2 2026-04-30 15:50 1.2M
20260430T12Z_MSC_GDPS_AirTemp_IsbL-1000_LatLon0.15_PT003H.grib2 2026-04-30 15:50 1.1M
20260430T12Z_MSC_GDPS_AirTemp_IsbL-1015_LatLon0.15_PT003H.grib2 2026-04-30 15:50 1.1M
20260430T12Z_MSC_GDPS_Albedo_Sfc_LatLon0.15_PT003H.grib2 2026-04-30 15:50 242K
20260430T12Z_MSC_GDPS_CAPE_Sfc_LatLon0.15_PT003H.grib2 2026-04-30 15:50 4.0M
20260430T12Z_MSC_GDPS_CIN_Sfc_LatLon0.15_PT003H.grib2 2026-04-30 15:50 3.0M
20260430T12Z_MSC_GDPS_CloudWater_EAtm_LatLon0.15_PT003H.grib2 2026-04-30 15:50 532K
20260430T12Z_MSC_GDPS_ConvectivePrecip-Accum_Sfc_LatLon0.15_PT003H.grib2 2026-04-30 15:50 1.4M
20260430T12Z_MSC_GDPS_DewPointDepression_AGL-2m_LatLon0.15_PT003H.grib2 2026-04-30 15:50 766K
20260430T12Z_MSC_GDPS_DewPointDepression_IsbL-0010_LatLon0.15_PT003H.grib2 2026-04-30 15:50 54K
20260430T12Z_MSC_GDPS_DewPointDepression_IsbL-0020_LatLon0.15_PT003H.grib2 2026-04-30 15:50 64K
20260430T12Z_MSC_GDPS_DewPointDepression_IsbL-0030_LatLon0.15_PT003H.grib2 2026-04-30 15:50 72K
20260430T12Z_MSC_GDPS_DewPointDepression_IsbL-0050_LatLon0.15_PT003H.grib2 2026-04-30 15:50 374K
20260430T12Z_MSC_GDPS_DewPointDepression_IsbL-0100_LatLon0.15_PT003H.grib2 2026-04-30 15:50 420K
20260430T12Z_MSC_GDPS_DewPointDepression_IsbL-0150_LatLon0.15_PT003H.grib2 2026-04-30 15:50 467K
20260430T12Z_MSC_GDPS_DewPointDepression_IsbL-0175_LatLon0.15_PT003H.grib2 2026-04-30 15:50 569K
20260430T12Z_MSC_GDPS_DewPointDepression_IsbL-0200_LatLon0.15_PT003H.grib2 2026-04-30 15:50 694K
20260430T12Z_MSC_GDPS_DewPointDepression_IsbL-0225_LatLon0.15_PT003H.grib2 2026-04-30 15:50 808K
20260430T12Z_MSC_GDPS_DewPointDepression_IsbL-0250_LatLon0.15_PT003H.grib2 2026-04-30 15:50 891K
20260430T12Z_MSC_GDPS_DewPointDepression_IsbL-0275_LatLon0.15_PT003H.grib2 2026-04-30 15:50 896K
20260430T12Z_MSC_GDPS_DewPointDepression_IsbL-0300_LatLon0.15_PT003H.grib2 2026-04-30 15:50 939K
20260430T12Z_MSC_GDPS_DewPointDepression_IsbL-0350_LatLon0.15_PT003H.grib2 2026-04-30 15:50 958K
20260430T12Z_MSC_GDPS_DewPointDepression_IsbL-0400_LatLon0.15_PT003H.grib2 2026-04-30 15:50 1.0M
20260430T12Z_MSC_GDPS_DewPointDepression_IsbL-0450_LatLon0.15_PT003H.grib2 2026-04-30 15:50 1.0M
20260430T12Z_MSC_GDPS_DewPointDepression_IsbL-0500_LatLon0.15_PT003H.grib2 2026-04-30 15:50 1.0M
20260430T12Z_MSC_GDPS_DewPointDepression_IsbL-0550_LatLon0.15_PT003H.grib2 2026-04-30 15:50 1.0M
20260430T12Z_MSC_GDPS_DewPointDepression_IsbL-0600_LatLon0.15_PT003H.grib2 2026-04-30 15:50 1.0M
20260430T12Z_MSC_GDPS_DewPointDepression_IsbL-0650_LatLon0.15_PT003H.grib2 2026-04-30 15:50 1.1M
20260430T12Z_MSC_GDPS_DewPointDepression_IsbL-0700_LatLon0.15_PT003H.grib2 2026-04-30 15:50 1.1M
20260430T12Z_MSC_GDPS_DewPointDepression_IsbL-0750_LatLon0.15_PT003H.grib2 2026-04-30 15:50 1.1M
20260430T12Z_MSC_GDPS_DewPointDepression_IsbL-0800_LatLon0.15_PT003H.grib2 2026-04-30 15:50 1.1M
20260430T12Z_MSC_GDPS_DewPointDepression_IsbL-0850_LatLon0.15_PT003H.grib2 2026-04-30 15:50 1.1M
20260430T12Z_MSC_GDPS_DewPointDepression_IsbL-0875_LatLon0.15_PT003H.grib2 2026-04-30 15:50 1.1M
20260430T12Z_MSC_GDPS_DewPointDepression_IsbL-0900_LatLon0.15_PT003H.grib2 2026-04-30 15:50 1.1M
20260430T12Z_MSC_GDPS_DewPointDepression_IsbL-0925_LatLon0.15_PT003H.grib2 2026-04-30 15:50 1.0M
20260430T12Z_MSC_GDPS_DewPointDepression_IsbL-0950_LatLon0.15_PT003H.grib2 2026-04-30 15:50 1.0M
20260430T12Z_MSC_GDPS_DewPointDepression_IsbL-0970_LatLon0.15_PT003H.grib2 2026-04-30 15:50 1.0M
20260430T12Z_MSC_GDPS_DewPointDepression_IsbL-0985_LatLon0.15_PT003H.grib2 2026-04-30 15:50 1.0M
20260430T12Z_MSC_GDPS_DewPointDepression_IsbL-1000_LatLon0.15_PT003H.grib2 2026-04-30 15:50 1.0M
20260430T12Z_MSC_GDPS_DewPointDepression_IsbL-1015_LatLon0.15_PT003H.grib2 2026-04-30 15:50 920K
20260430T12Z_MSC_GDPS_DewPoint_AGL-2m_LatLon0.15_PT003H.grib2 2026-04-30 15:50 609K
20260430T12Z_MSC_GDPS_DownwardLongwaveRadiationFlux-Accum_Sfc_LatLon0.15_PT003H.grib2 2026-04-30 15:50 1.0M
20260430T12Z_MSC_GDPS_DownwardShortwaveRadiationFlux-Accum_NTAtm_LatLon0.15_PT003H.grib2 2026-04-30 15:50 211K
20260430T12Z_MSC_GDPS_DownwardShortwaveRadiationFlux-Accum_Sfc_LatLon0.15_PT003H.grib2 2026-04-30 15:50 578K
20260430T12Z_MSC_GDPS_FreezingRain-Accum1h_Sfc_LatLon0.15_PT003H.grib2 2026-04-30 15:50 35K
20260430T12Z_MSC_GDPS_FreezingRain-Accum3h_Sfc_LatLon0.15_PT003H.grib2 2026-04-30 15:50 48K
20260430T12Z_MSC_GDPS_FreezingRain-Accum_Sfc_LatLon0.15_PT003H.grib2 2026-04-30 15:50 66K
20260430T12Z_MSC_GDPS_GeopotentialHeight_IsbL-0001_LatLon0.15_PT003H.grib2 2026-04-30 15:50 391K
20260430T12Z_MSC_GDPS_GeopotentialHeight_IsbL-0005_LatLon0.15_PT003H.grib2 2026-04-30 15:50 497K
20260430T12Z_MSC_GDPS_GeopotentialHeight_IsbL-0010_LatLon0.15_PT003H.grib2 2026-04-30 15:50 484K
20260430T12Z_MSC_GDPS_GeopotentialHeight_IsbL-0020_LatLon0.15_PT003H.grib2 2026-04-30 15:50 421K
20260430T12Z_MSC_GDPS_GeopotentialHeight_IsbL-0030_LatLon0.15_PT003H.grib2 2026-04-30 15:50 579K
20260430T12Z_MSC_GDPS_GeopotentialHeight_IsbL-0050_LatLon0.15_PT003H.grib2 2026-04-30 15:50 582K
20260430T12Z_MSC_GDPS_GeopotentialHeight_IsbL-0100_LatLon0.15_PT003H.grib2 2026-04-30 15:50 614K
20260430T12Z_MSC_GDPS_GeopotentialHeight_IsbL-0150_LatLon0.15_PT003H.grib2 2026-04-30 15:50 633K
20260430T12Z_MSC_GDPS_GeopotentialHeight_IsbL-0175_LatLon0.15_PT003H.grib2 2026-04-30 15:50 636K
20260430T12Z_MSC_GDPS_GeopotentialHeight_IsbL-0200_LatLon0.15_PT003H.grib2 2026-04-30 15:50 639K
20260430T12Z_MSC_GDPS_GeopotentialHeight_IsbL-0225_LatLon0.15_PT003H.grib2 2026-04-30 15:50 637K
20260430T12Z_MSC_GDPS_GeopotentialHeight_IsbL-0250_LatLon0.15_PT003H.grib2 2026-04-30 15:50 645K
20260430T12Z_MSC_GDPS_GeopotentialHeight_IsbL-0275_LatLon0.15_PT003H.grib2 2026-04-30 15:50 643K
20260430T12Z_MSC_GDPS_GeopotentialHeight_IsbL-0300_LatLon0.15_PT003H.grib2 2026-04-30 15:50 636K
20260430T12Z_MSC_GDPS_GeopotentialHeight_IsbL-0350_LatLon0.15_PT003H.grib2 2026-04-30 15:50 636K
20260430T12Z_MSC_GDPS_GeopotentialHeight_IsbL-0400_LatLon0.15_PT003H.grib2 2026-04-30 15:50 626K
20260430T12Z_MSC_GDPS_GeopotentialHeight_IsbL-0450_LatLon0.15_PT003H.grib2 2026-04-30 15:50 616K
20260430T12Z_MSC_GDPS_GeopotentialHeight_IsbL-0500_LatLon0.15_PT003H.grib2 2026-04-30 15:50 535K
20260430T12Z_MSC_GDPS_GeopotentialHeight_IsbL-0550_LatLon0.15_PT003H.grib2 2026-04-30 15:50 527K
20260430T12Z_MSC_GDPS_GeopotentialHeight_IsbL-0600_LatLon0.15_PT003H.grib2 2026-04-30 15:50 524K
20260430T12Z_MSC_GDPS_GeopotentialHeight_IsbL-0650_LatLon0.15_PT003H.grib2 2026-04-30 15:50 692K
20260430T12Z_MSC_GDPS_GeopotentialHeight_IsbL-0700_LatLon0.15_PT003H.grib2 2026-04-30 15:50 693K
20260430T12Z_MSC_GDPS_GeopotentialHeight_IsbL-0750_LatLon0.15_PT003H.grib2 2026-04-30 15:50 691K
20260430T12Z_MSC_GDPS_GeopotentialHeight_IsbL-0800_LatLon0.15_PT003H.grib2 2026-04-30 15:50 703K
20260430T12Z_MSC_GDPS_GeopotentialHeight_IsbL-0850_LatLon0.15_PT003H.grib2 2026-04-30 15:50 706K
20260430T12Z_MSC_GDPS_GeopotentialHeight_IsbL-0875_LatLon0.15_PT003H.grib2 2026-04-30 15:50 714K
20260430T12Z_MSC_GDPS_GeopotentialHeight_IsbL-0900_LatLon0.15_PT003H.grib2 2026-04-30 15:50 722K
20260430T12Z_MSC_GDPS_GeopotentialHeight_IsbL-0925_LatLon0.15_PT003H.grib2 2026-04-30 15:50 729K
20260430T12Z_MSC_GDPS_GeopotentialHeight_IsbL-0950_LatLon0.15_PT003H.grib2 2026-04-30 15:50 736K
20260430T12Z_MSC_GDPS_GeopotentialHeight_IsbL-0970_LatLon0.15_PT003H.grib2 2026-04-30 15:50 749K
20260430T12Z_MSC_GDPS_GeopotentialHeight_IsbL-0985_LatLon0.15_PT003H.grib2 2026-04-30 15:50 766K
20260430T12Z_MSC_GDPS_GeopotentialHeight_IsbL-1000_LatLon0.15_PT003H.grib2 2026-04-30 15:50 788K
20260430T12Z_MSC_GDPS_GeopotentialHeight_IsbL-1015_LatLon0.15_PT003H.grib2 2026-04-30 15:50 812K
20260430T12Z_MSC_GDPS_Humidex_Sfc_LatLon0.15_PT003H.grib2 2026-04-30 15:50 5.3M
20260430T12Z_MSC_GDPS_IcePellets-Accum1h_Sfc_LatLon0.15_PT003H.grib2 2026-04-30 15:50 11K
20260430T12Z_MSC_GDPS_IcePellets-Accum3h_Sfc_LatLon0.15_PT003H.grib2 2026-04-30 15:50 12K
20260430T12Z_MSC_GDPS_IcePellets-Accum_Sfc_LatLon0.15_PT003H.grib2 2026-04-30 15:50 14K
20260430T12Z_MSC_GDPS_KIndex_Sfc_LatLon0.15_PT003H.grib2 2026-04-30 15:50 6.0M
20260430T12Z_MSC_GDPS_LatentHeatNetFlux_Sfc_LatLon0.15_PT003H.grib2 2026-04-30 15:50 699K
20260430T12Z_MSC_GDPS_LiftedIndex-MU-VT_IsbL-0500_LatLon0.15_PT003H.grib2 2026-04-30 15:50 5.4M
20260430T12Z_MSC_GDPS_NetLongwaveRadiationFlux-Accum_Sfc_LatLon0.15_PT003H.grib2 2026-04-30 15:50 1.3M
20260430T12Z_MSC_GDPS_NetShortwaveRadiationFlux-Accum_Sfc_LatLon0.15_PT003H.grib2 2026-04-30 15:50 545K
20260430T12Z_MSC_GDPS_O3MixingRatio_Sfc_LatLon0.15_PT003H.grib2 2026-04-30 16:43 2.4M
20260430T12Z_MSC_GDPS_O3_EAtm_LatLon0.15_PT003H.grib2 2026-04-30 16:43 2.5M
20260430T12Z_MSC_GDPS_PlanetaryBoundaryLayerHeight_Sfc_LatLon0.15_PT003H.grib2 2026-04-30 15:50 2.5M
20260430T12Z_MSC_GDPS_Precip-Accum1h_Sfc_LatLon0.15_PT003H.grib2 2026-04-30 15:50 3.1M
20260430T12Z_MSC_GDPS_Precip-Accum3h_Sfc_LatLon0.15_PT003H.grib2 2026-04-30 15:50 3.4M
20260430T12Z_MSC_GDPS_Precip-Accum_Sfc_LatLon0.15_PT003H.grib2 2026-04-30 15:50 3.3M
20260430T12Z_MSC_GDPS_PrecipRate_Sfc_LatLon0.15_PT003H.grib2 2026-04-30 15:50 2.8M
20260430T12Z_MSC_GDPS_PrecipType-Instant_Sfc_LatLon0.15_PT003H.grib2 2026-04-30 15:50 1.5M
20260430T12Z_MSC_GDPS_Pressure_MSL_LatLon0.15_PT003H.grib2 2026-04-30 15:50 727K
20260430T12Z_MSC_GDPS_Pressure_PVU-1.5_LatLon0.15_PT003H.grib2 2026-04-30 15:50 5.8M
20260430T12Z_MSC_GDPS_Pressure_PVU-1_LatLon0.15_PT003H.grib2 2026-04-30 15:50 6.0M
20260430T12Z_MSC_GDPS_Pressure_PVU-2_LatLon0.15_PT003H.grib2 2026-04-30 15:50 5.6M
20260430T12Z_MSC_GDPS_Pressure_Sfc_LatLon0.15_PT003H.grib2 2026-04-30 15:50 1.1M
20260430T12Z_MSC_GDPS_RadiativeTemp_Sfc_LatLon0.15_PT003H.grib2 2026-04-30 15:50 492K
20260430T12Z_MSC_GDPS_Rain-Accum1h_Sfc_LatLon0.15_PT003H.grib2 2026-04-30 15:50 1.6M
20260430T12Z_MSC_GDPS_Rain-Accum3h_Sfc_LatLon0.15_PT003H.grib2 2026-04-30 15:50 1.7M
20260430T12Z_MSC_GDPS_Rain-Accum_Sfc_LatLon0.15_PT003H.grib2 2026-04-30 15:50 2.3M
20260430T12Z_MSC_GDPS_RelativeHumidity_AGL-2m_LatLon0.15_PT003H.grib2 2026-04-30 15:50 1.0M
20260430T12Z_MSC_GDPS_RelativeHumidity_IsbL-0010_LatLon0.15_PT003H.grib2 2026-04-30 15:50 205K
20260430T12Z_MSC_GDPS_RelativeHumidity_IsbL-0020_LatLon0.15_PT003H.grib2 2026-04-30 15:50 174K
20260430T12Z_MSC_GDPS_RelativeHumidity_IsbL-0030_LatLon0.15_PT003H.grib2 2026-04-30 15:50 271K
20260430T12Z_MSC_GDPS_RelativeHumidity_IsbL-0050_LatLon0.15_PT003H.grib2 2026-04-30 15:50 332K
20260430T12Z_MSC_GDPS_RelativeHumidity_IsbL-0100_LatLon0.15_PT003H.grib2 2026-04-30 15:50 522K
20260430T12Z_MSC_GDPS_RelativeHumidity_IsbL-0150_LatLon0.15_PT003H.grib2 2026-04-30 15:50 663K
20260430T12Z_MSC_GDPS_RelativeHumidity_IsbL-0175_LatLon0.15_PT003H.grib2 2026-04-30 15:50 778K
20260430T12Z_MSC_GDPS_RelativeHumidity_IsbL-0200_LatLon0.15_PT003H.grib2 2026-04-30 15:50 697K
20260430T12Z_MSC_GDPS_RelativeHumidity_IsbL-0225_LatLon0.15_PT003H.grib2 2026-04-30 15:50 791K
20260430T12Z_MSC_GDPS_RelativeHumidity_IsbL-0250_LatLon0.15_PT003H.grib2 2026-04-30 15:50 869K
20260430T12Z_MSC_GDPS_RelativeHumidity_IsbL-0275_LatLon0.15_PT003H.grib2 2026-04-30 15:50 887K
20260430T12Z_MSC_GDPS_RelativeHumidity_IsbL-0300_LatLon0.15_PT003H.grib2 2026-04-30 15:50 930K
20260430T12Z_MSC_GDPS_RelativeHumidity_IsbL-0350_LatLon0.15_PT003H.grib2 2026-04-30 15:50 947K
20260430T12Z_MSC_GDPS_RelativeHumidity_IsbL-0400_LatLon0.15_PT003H.grib2 2026-04-30 15:50 970K
20260430T12Z_MSC_GDPS_RelativeHumidity_IsbL-0450_LatLon0.15_PT003H.grib2 2026-04-30 15:50 1.0M
20260430T12Z_MSC_GDPS_RelativeHumidity_IsbL-0500_LatLon0.15_PT003H.grib2 2026-04-30 15:50 1.0M
20260430T12Z_MSC_GDPS_RelativeHumidity_IsbL-0550_LatLon0.15_PT003H.grib2 2026-04-30 15:50 1.1M
20260430T12Z_MSC_GDPS_RelativeHumidity_IsbL-0600_LatLon0.15_PT003H.grib2 2026-04-30 15:50 1.1M
20260430T12Z_MSC_GDPS_RelativeHumidity_IsbL-0650_LatLon0.15_PT003H.grib2 2026-04-30 15:50 1.1M
20260430T12Z_MSC_GDPS_RelativeHumidity_IsbL-0700_LatLon0.15_PT003H.grib2 2026-04-30 15:50 1.1M
20260430T12Z_MSC_GDPS_RelativeHumidity_IsbL-0750_LatLon0.15_PT003H.grib2 2026-04-30 15:50 1.2M
20260430T12Z_MSC_GDPS_RelativeHumidity_IsbL-0800_LatLon0.15_PT003H.grib2 2026-04-30 15:50 1.3M
20260430T12Z_MSC_GDPS_RelativeHumidity_IsbL-0850_LatLon0.15_PT003H.grib2 2026-04-30 15:50 1.3M
20260430T12Z_MSC_GDPS_RelativeHumidity_IsbL-0875_LatLon0.15_PT003H.grib2 2026-04-30 15:50 1.3M
20260430T12Z_MSC_GDPS_RelativeHumidity_IsbL-0900_LatLon0.15_PT003H.grib2 2026-04-30 15:50 1.2M
20260430T12Z_MSC_GDPS_RelativeHumidity_IsbL-0925_LatLon0.15_PT003H.grib2 2026-04-30 15:50 1.2M
20260430T12Z_MSC_GDPS_RelativeHumidity_IsbL-0950_LatLon0.15_PT003H.grib2 2026-04-30 15:50 1.2M
20260430T12Z_MSC_GDPS_RelativeHumidity_IsbL-0970_LatLon0.15_PT003H.grib2 2026-04-30 15:50 1.2M
20260430T12Z_MSC_GDPS_RelativeHumidity_IsbL-0985_LatLon0.15_PT003H.grib2 2026-04-30 15:50 1.2M
20260430T12Z_MSC_GDPS_RelativeHumidity_IsbL-1000_LatLon0.15_PT003H.grib2 2026-04-30 15:50 1.1M
20260430T12Z_MSC_GDPS_RelativeHumidity_IsbL-1015_LatLon0.15_PT003H.grib2 2026-04-30 15:50 1.0M
20260430T12Z_MSC_GDPS_RelativeVorticity_IsbL-0200_LatLon0.15_PT003H.grib2 2026-04-30 15:50 1.5M
20260430T12Z_MSC_GDPS_RelativeVorticity_IsbL-0250_LatLon0.15_PT003H.grib2 2026-04-30 15:50 1.3M
20260430T12Z_MSC_GDPS_RelativeVorticity_IsbL-0500_LatLon0.15_PT003H.grib2 2026-04-30 15:50 1.5M
20260430T12Z_MSC_GDPS_RelativeVorticity_IsbL-0700_LatLon0.15_PT003H.grib2 2026-04-30 15:50 1.6M
20260430T12Z_MSC_GDPS_RelativeVorticity_IsbL-0850_LatLon0.15_PT003H.grib2 2026-04-30 15:50 1.6M
20260430T12Z_MSC_GDPS_Runoff-Accum_Sfc_LatLon0.15_PT003H.grib2 2026-04-30 15:50 55K
20260430T12Z_MSC_GDPS_SensibleHeatNetFlux_Sfc_LatLon0.15_PT003H.grib2 2026-04-30 15:50 641K
20260430T12Z_MSC_GDPS_ShowalterIndex_IsbL-0500_LatLon0.15_PT003H.grib2 2026-04-30 15:50 6.2M
20260430T12Z_MSC_GDPS_Snow-Accum1h_Sfc_LatLon0.15_PT003H.grib2 2026-04-30 15:50 1.0M
20260430T12Z_MSC_GDPS_Snow-Accum3h_Sfc_LatLon0.15_PT003H.grib2 2026-04-30 15:50 1.0M
20260430T12Z_MSC_GDPS_Snow-Accum_Sfc_LatLon0.15_PT003H.grib2 2026-04-30 15:50 1.5M
20260430T12Z_MSC_GDPS_SnowDensity_Sfc_LatLon0.15_PT003H.grib2 2026-04-30 15:50 250K
20260430T12Z_MSC_GDPS_SnowDepth_Sfc_LatLon0.15_PT003H.grib2 2026-04-30 15:50 1.7M
20260430T12Z_MSC_GDPS_SoilTemp_DBS-0to10cm_LatLon0.15_PT003H.grib2 2026-04-30 15:50 493K
20260430T12Z_MSC_GDPS_SoilTemp_Sfc_LatLon0.15_PT003H.grib2 2026-04-30 15:50 568K
20260430T12Z_MSC_GDPS_SoilVolumetricIceContent_Sfc_LatLon0.15_PT003H.grib2 2026-04-30 15:50 207K
20260430T12Z_MSC_GDPS_SoilVolumetricWaterContent_DBS-0to10cm_LatLon0.15_PT003H.grib2 2026-04-30 15:50 584K
20260430T12Z_MSC_GDPS_SoilVolumetricWaterContent_DBS-0to1cm_LatLon0.15_PT003H.grib2 2026-04-30 15:50 642K
20260430T12Z_MSC_GDPS_SpecificHumidity_AGL-120m_LatLon0.15_PT003H.grib2 2026-04-30 15:50 1.1M
20260430T12Z_MSC_GDPS_SpecificHumidity_AGL-2m_LatLon0.15_PT003H.grib2 2026-04-30 15:50 1.2M
20260430T12Z_MSC_GDPS_SpecificHumidity_AGL-40m_LatLon0.15_PT003H.grib2 2026-04-30 15:50 1.1M
20260430T12Z_MSC_GDPS_SpecificHumidity_AGL-80m_LatLon0.15_PT003H.grib2 2026-04-30 15:50 1.1M
20260430T12Z_MSC_GDPS_SpecificHumidity_IsbL-0001_LatLon0.15_PT003H.grib2 2026-04-30 15:50 1.1M
20260430T12Z_MSC_GDPS_SpecificHumidity_IsbL-0005_LatLon0.15_PT003H.grib2 2026-04-30 15:50 1.3M
20260430T12Z_MSC_GDPS_SpecificHumidity_IsbL-0010_LatLon0.15_PT003H.grib2 2026-04-30 15:50 1.4M
20260430T12Z_MSC_GDPS_SpecificHumidity_IsbL-0020_LatLon0.15_PT003H.grib2 2026-04-30 15:50 1.4M
20260430T12Z_MSC_GDPS_SpecificHumidity_IsbL-0030_LatLon0.15_PT003H.grib2 2026-04-30 15:50 1.4M
20260430T12Z_MSC_GDPS_SpecificHumidity_IsbL-0050_LatLon0.15_PT003H.grib2 2026-04-30 15:50 1.7M
20260430T12Z_MSC_GDPS_SpecificHumidity_IsbL-0100_LatLon0.15_PT003H.grib2 2026-04-30 15:50 1.1M
20260430T12Z_MSC_GDPS_SpecificHumidity_IsbL-0150_LatLon0.15_PT003H.grib2 2026-04-30 15:50 1.0M
20260430T12Z_MSC_GDPS_SpecificHumidity_IsbL-0175_LatLon0.15_PT003H.grib2 2026-04-30 15:50 1.3M
20260430T12Z_MSC_GDPS_SpecificHumidity_IsbL-0200_LatLon0.15_PT003H.grib2 2026-04-30 15:50 1.3M
20260430T12Z_MSC_GDPS_SpecificHumidity_IsbL-0225_LatLon0.15_PT003H.grib2 2026-04-30 15:50 1.3M
20260430T12Z_MSC_GDPS_SpecificHumidity_IsbL-0250_LatLon0.15_PT003H.grib2 2026-04-30 15:50 1.4M
20260430T12Z_MSC_GDPS_SpecificHumidity_IsbL-0275_LatLon0.15_PT003H.grib2 2026-04-30 15:50 1.3M
20260430T12Z_MSC_GDPS_SpecificHumidity_IsbL-0300_LatLon0.15_PT003H.grib2 2026-04-30 15:50 1.5M
20260430T12Z_MSC_GDPS_SpecificHumidity_IsbL-0350_LatLon0.15_PT003H.grib2 2026-04-30 15:50 1.5M
20260430T12Z_MSC_GDPS_SpecificHumidity_IsbL-0400_LatLon0.15_PT003H.grib2 2026-04-30 15:50 1.5M
20260430T12Z_MSC_GDPS_SpecificHumidity_IsbL-0450_LatLon0.15_PT003H.grib2 2026-04-30 15:50 1.6M
20260430T12Z_MSC_GDPS_SpecificHumidity_IsbL-0500_LatLon0.15_PT003H.grib2 2026-04-30 15:50 1.4M
20260430T12Z_MSC_GDPS_SpecificHumidity_IsbL-0550_LatLon0.15_PT003H.grib2 2026-04-30 15:50 1.6M
20260430T12Z_MSC_GDPS_SpecificHumidity_IsbL-0600_LatLon0.15_PT003H.grib2 2026-04-30 15:50 1.7M
20260430T12Z_MSC_GDPS_SpecificHumidity_IsbL-0650_LatLon0.15_PT003H.grib2 2026-04-30 15:50 1.5M
20260430T12Z_MSC_GDPS_SpecificHumidity_IsbL-0700_LatLon0.15_PT003H.grib2 2026-04-30 15:50 1.6M
20260430T12Z_MSC_GDPS_SpecificHumidity_IsbL-0750_LatLon0.15_PT003H.grib2 2026-04-30 15:50 1.7M
20260430T12Z_MSC_GDPS_SpecificHumidity_IsbL-0800_LatLon0.15_PT003H.grib2 2026-04-30 15:50 1.8M
20260430T12Z_MSC_GDPS_SpecificHumidity_IsbL-0850_LatLon0.15_PT003H.grib2 2026-04-30 15:50 1.9M
20260430T12Z_MSC_GDPS_SpecificHumidity_IsbL-0875_LatLon0.15_PT003H.grib2 2026-04-30 15:50 1.6M
20260430T12Z_MSC_GDPS_SpecificHumidity_IsbL-0900_LatLon0.15_PT003H.grib2 2026-04-30 15:50 1.6M
20260430T12Z_MSC_GDPS_SpecificHumidity_IsbL-0925_LatLon0.15_PT003H.grib2 2026-04-30 15:50 1.6M
20260430T12Z_MSC_GDPS_SpecificHumidity_IsbL-0950_LatLon0.15_PT003H.grib2 2026-04-30 15:50 1.6M
20260430T12Z_MSC_GDPS_SpecificHumidity_IsbL-0970_LatLon0.15_PT003H.grib2 2026-04-30 15:50 1.5M
20260430T12Z_MSC_GDPS_SpecificHumidity_IsbL-0985_LatLon0.15_PT003H.grib2 2026-04-30 15:50 1.5M
20260430T12Z_MSC_GDPS_SpecificHumidity_IsbL-1000_LatLon0.15_PT003H.grib2 2026-04-30 15:50 1.5M
20260430T12Z_MSC_GDPS_SpecificHumidity_IsbL-1015_LatLon0.15_PT003H.grib2 2026-04-30 15:50 1.4M
20260430T12Z_MSC_GDPS_SpecificHumidity_Sfc_LatLon0.15_PT003H.grib2 2026-04-30 15:50 667K
20260430T12Z_MSC_GDPS_Thickness_IsbL-0850to0700_LatLon0.15_PT003H.grib2 2026-04-30 15:50 469K
20260430T12Z_MSC_GDPS_Thickness_IsbL-1000to0500_LatLon0.15_PT003H.grib2 2026-04-30 15:50 371K
20260430T12Z_MSC_GDPS_Thickness_IsbL-1000to0850_LatLon0.15_PT003H.grib2 2026-04-30 15:50 490K
20260430T12Z_MSC_GDPS_TotalCloudCover_Sfc_LatLon0.15_PT003H.grib2 2026-04-30 15:50 825K
20260430T12Z_MSC_GDPS_TotalTotalsIndex_Sfc_LatLon0.15_PT003H.grib2 2026-04-30 15:50 6.1M
20260430T12Z_MSC_GDPS_UVIndex-ClearSky_Sfc_LatLon0.15_PT003H.grib2 2026-04-30 16:43 1.0M
20260430T12Z_MSC_GDPS_UVIndex_Sfc_LatLon0.15_PT003H.grib2 2026-04-30 16:43 1.5M
20260430T12Z_MSC_GDPS_UpwardLongwaveRadiationFlux_NTAtm_LatLon0.15_PT003H.grib2 2026-04-30 15:50 837K
20260430T12Z_MSC_GDPS_VerticalVelocity_IsbL-0200_LatLon0.15_PT003H.grib2 2026-04-30 15:50 1.1M
20260430T12Z_MSC_GDPS_VerticalVelocity_IsbL-0250_LatLon0.15_PT003H.grib2 2026-04-30 15:50 1.3M
20260430T12Z_MSC_GDPS_VerticalVelocity_IsbL-0500_LatLon0.15_PT003H.grib2 2026-04-30 15:50 1.0M
20260430T12Z_MSC_GDPS_VerticalVelocity_IsbL-0600_LatLon0.15_PT003H.grib2 2026-04-30 15:50 1.1M
20260430T12Z_MSC_GDPS_VerticalVelocity_IsbL-0700_LatLon0.15_PT003H.grib2 2026-04-30 15:50 1.1M
20260430T12Z_MSC_GDPS_VerticalVelocity_IsbL-0850_LatLon0.15_PT003H.grib2 2026-04-30 15:50 1.6M
20260430T12Z_MSC_GDPS_WindChill_Sfc_LatLon0.15_PT003H.grib2 2026-04-30 15:50 5.3M
20260430T12Z_MSC_GDPS_WindDir_AGL-10m_LatLon0.15_PT003H.grib2 2026-04-30 15:50 1.3M
20260430T12Z_MSC_GDPS_WindDir_AGL-120m_LatLon0.15_PT003H.grib2 2026-04-30 15:50 1.4M
20260430T12Z_MSC_GDPS_WindDir_AGL-40m_LatLon0.15_PT003H.grib2 2026-04-30 15:50 1.4M
20260430T12Z_MSC_GDPS_WindDir_AGL-80m_LatLon0.15_PT003H.grib2 2026-04-30 15:50 1.4M
20260430T12Z_MSC_GDPS_WindDir_IsbL-0001_LatLon0.15_PT003H.grib2 2026-04-30 15:50 668K
20260430T12Z_MSC_GDPS_WindDir_IsbL-0005_LatLon0.15_PT003H.grib2 2026-04-30 15:50 809K
20260430T12Z_MSC_GDPS_WindDir_IsbL-0010_LatLon0.15_PT003H.grib2 2026-04-30 15:50 853K
20260430T12Z_MSC_GDPS_WindDir_IsbL-0020_LatLon0.15_PT003H.grib2 2026-04-30 15:50 937K
20260430T12Z_MSC_GDPS_WindDir_IsbL-0030_LatLon0.15_PT003H.grib2 2026-04-30 15:50 927K
20260430T12Z_MSC_GDPS_WindDir_IsbL-0050_LatLon0.15_PT003H.grib2 2026-04-30 15:50 956K
20260430T12Z_MSC_GDPS_WindDir_IsbL-0100_LatLon0.15_PT003H.grib2 2026-04-30 15:50 1.0M
20260430T12Z_MSC_GDPS_WindDir_IsbL-0150_LatLon0.15_PT003H.grib2 2026-04-30 15:50 1.0M
20260430T12Z_MSC_GDPS_WindDir_IsbL-0175_LatLon0.15_PT003H.grib2 2026-04-30 15:50 1.1M
20260430T12Z_MSC_GDPS_WindDir_IsbL-0200_LatLon0.15_PT003H.grib2 2026-04-30 15:50 1.1M
20260430T12Z_MSC_GDPS_WindDir_IsbL-0225_LatLon0.15_PT003H.grib2 2026-04-30 15:50 1.1M
20260430T12Z_MSC_GDPS_WindDir_IsbL-0250_LatLon0.15_PT003H.grib2 2026-04-30 15:50 1.1M
20260430T12Z_MSC_GDPS_WindDir_IsbL-0275_LatLon0.15_PT003H.grib2 2026-04-30 15:50 1.2M
20260430T12Z_MSC_GDPS_WindDir_IsbL-0300_LatLon0.15_PT003H.grib2 2026-04-30 15:50 1.2M
20260430T12Z_MSC_GDPS_WindDir_IsbL-0350_LatLon0.15_PT003H.grib2 2026-04-30 15:50 1.2M
20260430T12Z_MSC_GDPS_WindDir_IsbL-0400_LatLon0.15_PT003H.grib2 2026-04-30 15:50 1.3M
20260430T12Z_MSC_GDPS_WindDir_IsbL-0450_LatLon0.15_PT003H.grib2 2026-04-30 15:50 1.3M
20260430T12Z_MSC_GDPS_WindDir_IsbL-0500_LatLon0.15_PT003H.grib2 2026-04-30 15:50 1.3M
20260430T12Z_MSC_GDPS_WindDir_IsbL-0550_LatLon0.15_PT003H.grib2 2026-04-30 15:50 1.4M
20260430T12Z_MSC_GDPS_WindDir_IsbL-0600_LatLon0.15_PT003H.grib2 2026-04-30 15:50 1.5M
20260430T12Z_MSC_GDPS_WindDir_IsbL-0650_LatLon0.15_PT003H.grib2 2026-04-30 15:50 1.6M
20260430T12Z_MSC_GDPS_WindDir_IsbL-0700_LatLon0.15_PT003H.grib2 2026-04-30 15:50 1.7M
20260430T12Z_MSC_GDPS_WindDir_IsbL-0750_LatLon0.15_PT003H.grib2 2026-04-30 15:50 1.7M
20260430T12Z_MSC_GDPS_WindDir_IsbL-0800_LatLon0.15_PT003H.grib2 2026-04-30 15:50 1.8M
20260430T12Z_MSC_GDPS_WindDir_IsbL-0850_LatLon0.15_PT003H.grib2 2026-04-30 15:50 1.9M
20260430T12Z_MSC_GDPS_WindDir_IsbL-0875_LatLon0.15_PT003H.grib2 2026-04-30 15:50 2.0M
20260430T12Z_MSC_GDPS_WindDir_IsbL-0900_LatLon0.15_PT003H.grib2 2026-04-30 15:50 2.0M
20260430T12Z_MSC_GDPS_WindDir_IsbL-0925_LatLon0.15_PT003H.grib2 2026-04-30 15:50 2.0M
20260430T12Z_MSC_GDPS_WindDir_IsbL-0950_LatLon0.15_PT003H.grib2 2026-04-30 15:50 2.0M
20260430T12Z_MSC_GDPS_WindDir_IsbL-0970_LatLon0.15_PT003H.grib2 2026-04-30 15:50 2.0M
20260430T12Z_MSC_GDPS_WindDir_IsbL-0985_LatLon0.15_PT003H.grib2 2026-04-30 15:50 2.0M
20260430T12Z_MSC_GDPS_WindDir_IsbL-1000_LatLon0.15_PT003H.grib2 2026-04-30 15:50 2.1M
20260430T12Z_MSC_GDPS_WindDir_IsbL-1015_LatLon0.15_PT003H.grib2 2026-04-30 15:50 2.0M
20260430T12Z_MSC_GDPS_WindGust-Max_AGL-10m_LatLon0.15_PT003H.grib2 2026-04-30 15:50 2.2M
20260430T12Z_MSC_GDPS_WindGust-Min_AGL-10m_LatLon0.15_PT003H.grib2 2026-04-30 15:50 2.2M
20260430T12Z_MSC_GDPS_WindGust_AGL-10m_LatLon0.15_PT003H.grib2 2026-04-30 15:50 2.2M
20260430T12Z_MSC_GDPS_WindSpeed_AGL-10m_LatLon0.15_PT003H.grib2 2026-04-30 15:50 1.1M
20260430T12Z_MSC_GDPS_WindSpeed_AGL-120m_LatLon0.15_PT003H.grib2 2026-04-30 15:50 1.2M
20260430T12Z_MSC_GDPS_WindSpeed_AGL-40m_LatLon0.15_PT003H.grib2 2026-04-30 15:50 1.2M
20260430T12Z_MSC_GDPS_WindSpeed_AGL-80m_LatLon0.15_PT003H.grib2 2026-04-30 15:50 1.2M
20260430T12Z_MSC_GDPS_WindSpeed_IsbL-0001_LatLon0.15_PT003H.grib2 2026-04-30 15:50 649K
20260430T12Z_MSC_GDPS_WindSpeed_IsbL-0005_LatLon0.15_PT003H.grib2 2026-04-30 15:50 620K
20260430T12Z_MSC_GDPS_WindSpeed_IsbL-0010_LatLon0.15_PT003H.grib2 2026-04-30 15:50 637K
20260430T12Z_MSC_GDPS_WindSpeed_IsbL-0020_LatLon0.15_PT003H.grib2 2026-04-30 15:50 672K
20260430T12Z_MSC_GDPS_WindSpeed_IsbL-0030_LatLon0.15_PT003H.grib2 2026-04-30 15:50 873K
20260430T12Z_MSC_GDPS_WindSpeed_IsbL-0050_LatLon0.15_PT003H.grib2 2026-04-30 15:50 916K
20260430T12Z_MSC_GDPS_WindSpeed_IsbL-0100_LatLon0.15_PT003H.grib2 2026-04-30 15:50 870K
20260430T12Z_MSC_GDPS_WindSpeed_IsbL-0150_LatLon0.15_PT003H.grib2 2026-04-30 15:50 1.0M
20260430T12Z_MSC_GDPS_WindSpeed_IsbL-0175_LatLon0.15_PT003H.grib2 2026-04-30 15:50 1.0M
20260430T12Z_MSC_GDPS_WindSpeed_IsbL-0200_LatLon0.15_PT003H.grib2 2026-04-30 15:50 1.1M
20260430T12Z_MSC_GDPS_WindSpeed_IsbL-0225_LatLon0.15_PT003H.grib2 2026-04-30 15:50 1.1M
20260430T12Z_MSC_GDPS_WindSpeed_IsbL-0250_LatLon0.15_PT003H.grib2 2026-04-30 15:50 1.1M
20260430T12Z_MSC_GDPS_WindSpeed_IsbL-0275_LatLon0.15_PT003H.grib2 2026-04-30 15:50 1.1M
20260430T12Z_MSC_GDPS_WindSpeed_IsbL-0300_LatLon0.15_PT003H.grib2 2026-04-30 15:50 1.1M
20260430T12Z_MSC_GDPS_WindSpeed_IsbL-0350_LatLon0.15_PT003H.grib2 2026-04-30 15:50 1.1M
20260430T12Z_MSC_GDPS_WindSpeed_IsbL-0400_LatLon0.15_PT003H.grib2 2026-04-30 15:50 1.1M
20260430T12Z_MSC_GDPS_WindSpeed_IsbL-0450_LatLon0.15_PT003H.grib2 2026-04-30 15:50 1.1M
20260430T12Z_MSC_GDPS_WindSpeed_IsbL-0500_LatLon0.15_PT003H.grib2 2026-04-30 15:50 1.1M
20260430T12Z_MSC_GDPS_WindSpeed_IsbL-0550_LatLon0.15_PT003H.grib2 2026-04-30 15:50 1.1M
20260430T12Z_MSC_GDPS_WindSpeed_IsbL-0600_LatLon0.15_PT003H.grib2 2026-04-30 15:50 1.1M
20260430T12Z_MSC_GDPS_WindSpeed_IsbL-0650_LatLon0.15_PT003H.grib2 2026-04-30 15:50 1.5M
20260430T12Z_MSC_GDPS_WindSpeed_IsbL-0700_LatLon0.15_PT003H.grib2 2026-04-30 15:50 1.5M
20260430T12Z_MSC_GDPS_WindSpeed_IsbL-0750_LatLon0.15_PT003H.grib2 2026-04-30 15:50 1.6M
20260430T12Z_MSC_GDPS_WindSpeed_IsbL-0800_LatLon0.15_PT003H.grib2 2026-04-30 15:50 1.8M
20260430T12Z_MSC_GDPS_WindSpeed_IsbL-0850_LatLon0.15_PT003H.grib2 2026-04-30 15:50 1.7M
20260430T12Z_MSC_GDPS_WindSpeed_IsbL-0875_LatLon0.15_PT003H.grib2 2026-04-30 15:50 1.8M
20260430T12Z_MSC_GDPS_WindSpeed_IsbL-0900_LatLon0.15_PT003H.grib2 2026-04-30 15:50 1.8M
20260430T12Z_MSC_GDPS_WindSpeed_IsbL-0925_LatLon0.15_PT003H.grib2 2026-04-30 15:50 1.9M
20260430T12Z_MSC_GDPS_WindSpeed_IsbL-0950_LatLon0.15_PT003H.grib2 2026-04-30 15:50 1.9M
20260430T12Z_MSC_GDPS_WindSpeed_IsbL-0970_LatLon0.15_PT003H.grib2 2026-04-30 15:50 1.9M
20260430T12Z_MSC_GDPS_WindSpeed_IsbL-0985_LatLon0.15_PT003H.grib2 2026-04-30 15:50 1.8M
20260430T12Z_MSC_GDPS_WindSpeed_IsbL-1000_LatLon0.15_PT003H.grib2 2026-04-30 15:50 1.9M
20260430T12Z_MSC_GDPS_WindSpeed_IsbL-1015_LatLon0.15_PT003H.grib2 2026-04-30 15:50 1.8M
20260430T12Z_MSC_GDPS_WindU_AGL-10m_LatLon0.15_PT003H.grib2 2026-04-30 15:50 1.6M
20260430T12Z_MSC_GDPS_WindU_AGL-120m_LatLon0.15_PT003H.grib2 2026-04-30 15:50 1.0M
20260430T12Z_MSC_GDPS_WindU_AGL-40m_LatLon0.15_PT003H.grib2 2026-04-30 15:50 1.0M
20260430T12Z_MSC_GDPS_WindU_AGL-80m_LatLon0.15_PT003H.grib2 2026-04-30 15:50 1.0M
20260430T12Z_MSC_GDPS_WindU_IsbL-0001_LatLon0.15_PT003H.grib2 2026-04-30 15:50 507K
20260430T12Z_MSC_GDPS_WindU_IsbL-0005_LatLon0.15_PT003H.grib2 2026-04-30 15:50 703K
20260430T12Z_MSC_GDPS_WindU_IsbL-0010_LatLon0.15_PT003H.grib2 2026-04-30 15:50 713K
20260430T12Z_MSC_GDPS_WindU_IsbL-0020_LatLon0.15_PT003H.grib2 2026-04-30 15:50 742K
20260430T12Z_MSC_GDPS_WindU_IsbL-0030_LatLon0.15_PT003H.grib2 2026-04-30 15:50 749K
20260430T12Z_MSC_GDPS_WindU_IsbL-0050_LatLon0.15_PT003H.grib2 2026-04-30 15:50 776K
20260430T12Z_MSC_GDPS_WindU_IsbL-0100_LatLon0.15_PT003H.grib2 2026-04-30 15:50 924K
20260430T12Z_MSC_GDPS_WindU_IsbL-0150_LatLon0.15_PT003H.grib2 2026-04-30 15:50 1.0M
20260430T12Z_MSC_GDPS_WindU_IsbL-0175_LatLon0.15_PT003H.grib2 2026-04-30 15:50 1.0M
20260430T12Z_MSC_GDPS_WindU_IsbL-0200_LatLon0.15_PT003H.grib2 2026-04-30 15:50 844K
20260430T12Z_MSC_GDPS_WindU_IsbL-0225_LatLon0.15_PT003H.grib2 2026-04-30 15:50 854K
20260430T12Z_MSC_GDPS_WindU_IsbL-0250_LatLon0.15_PT003H.grib2 2026-04-30 15:50 858K
20260430T12Z_MSC_GDPS_WindU_IsbL-0275_LatLon0.15_PT003H.grib2 2026-04-30 15:50 886K
20260430T12Z_MSC_GDPS_WindU_IsbL-0300_LatLon0.15_PT003H.grib2 2026-04-30 15:50 878K
20260430T12Z_MSC_GDPS_WindU_IsbL-0350_LatLon0.15_PT003H.grib2 2026-04-30 15:50 894K
20260430T12Z_MSC_GDPS_WindU_IsbL-0400_LatLon0.15_PT003H.grib2 2026-04-30 15:50 898K
20260430T12Z_MSC_GDPS_WindU_IsbL-0450_LatLon0.15_PT003H.grib2 2026-04-30 15:50 1.1M
20260430T12Z_MSC_GDPS_WindU_IsbL-0500_LatLon0.15_PT003H.grib2 2026-04-30 15:50 1.1M
20260430T12Z_MSC_GDPS_WindU_IsbL-0550_LatLon0.15_PT003H.grib2 2026-04-30 15:50 1.1M
20260430T12Z_MSC_GDPS_WindU_IsbL-0600_LatLon0.15_PT003H.grib2 2026-04-30 15:50 1.2M
20260430T12Z_MSC_GDPS_WindU_IsbL-0650_LatLon0.15_PT003H.grib2 2026-04-30 15:50 1.2M
20260430T12Z_MSC_GDPS_WindU_IsbL-0700_LatLon0.15_PT003H.grib2 2026-04-30 15:50 1.2M
20260430T12Z_MSC_GDPS_WindU_IsbL-0750_LatLon0.15_PT003H.grib2 2026-04-30 15:50 1.3M
20260430T12Z_MSC_GDPS_WindU_IsbL-0800_LatLon0.15_PT003H.grib2 2026-04-30 15:50 1.4M
20260430T12Z_MSC_GDPS_WindU_IsbL-0850_LatLon0.15_PT003H.grib2 2026-04-30 15:50 1.4M
20260430T12Z_MSC_GDPS_WindU_IsbL-0875_LatLon0.15_PT003H.grib2 2026-04-30 15:50 1.4M
20260430T12Z_MSC_GDPS_WindU_IsbL-0900_LatLon0.15_PT003H.grib2 2026-04-30 15:50 1.5M
20260430T12Z_MSC_GDPS_WindU_IsbL-0925_LatLon0.15_PT003H.grib2 2026-04-30 15:50 1.5M
20260430T12Z_MSC_GDPS_WindU_IsbL-0950_LatLon0.15_PT003H.grib2 2026-04-30 15:50 1.4M
20260430T12Z_MSC_GDPS_WindU_IsbL-0970_LatLon0.15_PT003H.grib2 2026-04-30 15:50 1.4M
20260430T12Z_MSC_GDPS_WindU_IsbL-0985_LatLon0.15_PT003H.grib2 2026-04-30 15:50 1.4M
20260430T12Z_MSC_GDPS_WindU_IsbL-1000_LatLon0.15_PT003H.grib2 2026-04-30 15:50 1.7M
20260430T12Z_MSC_GDPS_WindU_IsbL-1015_LatLon0.15_PT003H.grib2 2026-04-30 15:50 1.7M
20260430T12Z_MSC_GDPS_WindV_AGL-10m_LatLon0.15_PT003H.grib2 2026-04-30 15:50 1.3M
20260430T12Z_MSC_GDPS_WindV_AGL-120m_LatLon0.15_PT003H.grib2 2026-04-30 15:50 1.0M
20260430T12Z_MSC_GDPS_WindV_AGL-40m_LatLon0.15_PT003H.grib2 2026-04-30 15:50 969K
20260430T12Z_MSC_GDPS_WindV_AGL-80m_LatLon0.15_PT003H.grib2 2026-04-30 15:50 1.0M
20260430T12Z_MSC_GDPS_WindV_IsbL-0001_LatLon0.15_PT003H.grib2 2026-04-30 15:50 718K
20260430T12Z_MSC_GDPS_WindV_IsbL-0005_LatLon0.15_PT003H.grib2 2026-04-30 15:50 772K
20260430T12Z_MSC_GDPS_WindV_IsbL-0010_LatLon0.15_PT003H.grib2 2026-04-30 15:50 805K
20260430T12Z_MSC_GDPS_WindV_IsbL-0020_LatLon0.15_PT003H.grib2 2026-04-30 15:50 857K
20260430T12Z_MSC_GDPS_WindV_IsbL-0030_LatLon0.15_PT003H.grib2 2026-04-30 15:50 860K
20260430T12Z_MSC_GDPS_WindV_IsbL-0050_LatLon0.15_PT003H.grib2 2026-04-30 15:50 910K
20260430T12Z_MSC_GDPS_WindV_IsbL-0100_LatLon0.15_PT003H.grib2 2026-04-30 15:50 1.1M
20260430T12Z_MSC_GDPS_WindV_IsbL-0150_LatLon0.15_PT003H.grib2 2026-04-30 15:50 1.0M
20260430T12Z_MSC_GDPS_WindV_IsbL-0175_LatLon0.15_PT003H.grib2 2026-04-30 15:50 1.0M
20260430T12Z_MSC_GDPS_WindV_IsbL-0200_LatLon0.15_PT003H.grib2 2026-04-30 15:50 846K
20260430T12Z_MSC_GDPS_WindV_IsbL-0225_LatLon0.15_PT003H.grib2 2026-04-30 15:50 911K
20260430T12Z_MSC_GDPS_WindV_IsbL-0250_LatLon0.15_PT003H.grib2 2026-04-30 15:50 853K
20260430T12Z_MSC_GDPS_WindV_IsbL-0275_LatLon0.15_PT003H.grib2 2026-04-30 15:50 882K
20260430T12Z_MSC_GDPS_WindV_IsbL-0300_LatLon0.15_PT003H.grib2 2026-04-30 15:50 931K
20260430T12Z_MSC_GDPS_WindV_IsbL-0350_LatLon0.15_PT003H.grib2 2026-04-30 15:50 886K
20260430T12Z_MSC_GDPS_WindV_IsbL-0400_LatLon0.15_PT003H.grib2 2026-04-30 15:50 889K
20260430T12Z_MSC_GDPS_WindV_IsbL-0450_LatLon0.15_PT003H.grib2 2026-04-30 15:50 892K
20260430T12Z_MSC_GDPS_WindV_IsbL-0500_LatLon0.15_PT003H.grib2 2026-04-30 15:50 1.1M
20260430T12Z_MSC_GDPS_WindV_IsbL-0550_LatLon0.15_PT003H.grib2 2026-04-30 15:50 1.1M
20260430T12Z_MSC_GDPS_WindV_IsbL-0600_LatLon0.15_PT003H.grib2 2026-04-30 15:50 1.1M
20260430T12Z_MSC_GDPS_WindV_IsbL-0650_LatLon0.15_PT003H.grib2 2026-04-30 15:50 1.2M
20260430T12Z_MSC_GDPS_WindV_IsbL-0700_LatLon0.15_PT003H.grib2 2026-04-30 15:50 1.2M
20260430T12Z_MSC_GDPS_WindV_IsbL-0750_LatLon0.15_PT003H.grib2 2026-04-30 15:50 1.3M
20260430T12Z_MSC_GDPS_WindV_IsbL-0800_LatLon0.15_PT003H.grib2 2026-04-30 15:50 1.3M
20260430T12Z_MSC_GDPS_WindV_IsbL-0850_LatLon0.15_PT003H.grib2 2026-04-30 15:50 1.4M
20260430T12Z_MSC_GDPS_WindV_IsbL-0875_LatLon0.15_PT003H.grib2 2026-04-30 15:50 1.4M
20260430T12Z_MSC_GDPS_WindV_IsbL-0900_LatLon0.15_PT003H.grib2 2026-04-30 15:50 1.4M
20260430T12Z_MSC_GDPS_WindV_IsbL-0925_LatLon0.15_PT003H.grib2 2026-04-30 15:50 1.4M
20260430T12Z_MSC_GDPS_WindV_IsbL-0950_LatLon0.15_PT003H.grib2 2026-04-30 15:50 1.4M
20260430T12Z_MSC_GDPS_WindV_IsbL-0970_LatLon0.15_PT003H.grib2 2026-04-30 15:50 1.4M
20260430T12Z_MSC_GDPS_WindV_IsbL-0985_LatLon0.15_PT003H.grib2 2026-04-30 15:50 1.4M
20260430T12Z_MSC_GDPS_WindV_IsbL-1000_LatLon0.15_PT003H.grib2 2026-04-30 15:50 1.4M
20260430T12Z_MSC_GDPS_WindV_IsbL-1015_LatLon0.15_PT003H.grib2 2026-04-30 15:50 1.3M